Date,TemperatureHighF,TemperatureAvgF,TemperatureLowF,DewpointHighF,DewpointAvgF,DewpointLowF,HumidityHigh,HumidityAvg,HumidityLow,PressureMaxIn,PressureMinIn,WindSpeedMaxMPH,WindSpeedAvgMPH,GustSpeedMaxMPH,PrecipitationSumIn
2013-1-1,26.9,23.7,18.8,21.4,17.2,12.9,84,76,65,30.20,30.09,11,3,14,0.00
2013-1-2,25.0,17.3,10.4,17.6,12.8,6.8,88,82,72,30.26,30.17,6,2,8,0.00
2013-1-3,29.0,21.5,10.2,24.6,16.6,4.7,87,81,74,30.27,30.17,11,4,15,0.00
2013-1-4,28.1,22.5,14.8,21.3,17.5,10.4,88,81,70,30.28,30.18,9,6,13,0.00
2013-1-5,34.9,26.6,16.1,29.5,22.8,14.7,95,86,70,30.32,30.06,9,3,14,0.00
2013-1-6,33.9,31.9,29.4,30.8,28.0,24.5,94,86,75,30.34,29.96,15,5,21,0.00
2013-1-7,34.5,27.6,19.7,25.4,22.5,17.5,94,82,68,30.42,30.19,11,5,16,0.00
2013-1-8,38.1,29.6,23.1,28.8,24.4,20.6,91,81,66,30.28,30.16,5,2,8,0.00
2013-1-9,45.7,38.5,29.6,33.7,29.1,24.1,84,70,48,30.50,30.09,17,7,22,0.00
2013-1-10,38.6,31.7,22.6,33.4,27.5,20.6,95,85,71,30.57,30.09,10,4,15,0.42
2013-1-11,54.7,45.7,34.8,50.8,43.4,33.3,98,92,83,30.09,29.77,11,5,17,0.41
2013-1-12,58.7,49.3,38.1,49.8,44.6,36.3,94,84,65,29.95,29.80,7,4,12,0.32
2013-1-13,37.9,32.1,21.3,36.1,30.4,17.7,96,94,84,30.15,29.80,13,6,17,0.35
2013-1-14,23.1,20.5,14.0,18.0,16.0,11.4,91,83,75,30.48,30.16,14,4,16,0.00
2013-1-15,28.5,19.3,10.1,21.1,15.4,8.2,94,85,70,30.47,30.18,3,0,4,0.00
2013-1-16,34.7,25.8,14.8,27.6,19.5,13.1,95,79,50,30.19,29.88,10,4,20,0.00
2013-1-17,33.1,28.7,20.7,29.3,21.7,12.6,89,75,62,30.37,30.04,12,5,17,0.00
2013-1-18,36.1,28.5,20.4,26.2,19.7,14.2,82,70,61,30.44,30.01,14,7,18,0.00
2013-1-19,46.6,40.7,35.0,36.1,31.6,26.3,78,70,61,30.01,29.70,21,9,29,0.01
2013-1-20,40.6,19.2,14.8,29.1,12.3,8.2,86,75,52,30.25,29.70,27,9,35,0.00
2013-1-21,17.2,11.5,6.3,12.5,6.9,2.0,88,81,70,30.22,30.08,17,8,22,0.00
2013-1-22,8.9,4.7,0.6,3.3,-0.7,-3.5,86,78,65,30.37,30.21,13,5,19,0.00
2013-1-23,16.5,10.7,3.6,14.2,5.4,0.7,91,79,64,30.36,30.12,16,4,19,0.00
2013-1-24,17.6,11.1,3.1,10.1,2.7,-0.8,90,70,49,30.68,30.23,10,3,13,0.00
2013-1-25,22.3,18.2,14.1,19.8,13.1,3.6,91,80,62,30.51,30.04,6,3,8,0.00
2013-1-26,27.0,21.6,14.1,20.3,17.0,10.4,92,82,68,30.47,30.10,5,2,8,0.00
2013-1-27,31.3,24.7,16.6,29.5,20.0,12.8,93,82,73,30.47,30.07,12,5,16,0.00
2013-1-28,46.8,39.4,31.4,46.3,38.8,29.6,99,98,93,30.07,29.90,9,4,11,0.18
2013-1-29,57.7,51.1,36.0,55.6,50.4,35.5,100,97,91,29.98,29.39,13,6,19,1.31
2013-1-30,53.4,44.4,26.3,52.6,43.1,23.8,99,95,83,29.42,29.14,16,7,25,0.95
2013-1-31,26.3,17.0,11.8,24.3,14.0,8.9,95,88,79,30.01,29.42,18,10,26,0.00
2013-2-1,11.7,7.8,3.8,8.8,3.2,-0.2,89,81,65,30.36,30.02,12,5,16,0.00
2013-2-2,22.7,15.6,6.2,19.6,12.1,2.9,92,86,74,30.28,30.00,9,3,12,0.00
2013-2-3,19.9,15.3,10.4,16.9,11.6,7.3,91,85,79,30.07,29.95,15,3,17,0.00
2013-2-4,23.7,19.8,16.5,20.5,17.4,13.4,93,90,84,30.08,29.89,5,2,6,0.00
2013-2-5,28.9,21.2,9.2,26.1,18.6,7.1,95,90,76,30.03,29.84,9,3,12,0.00
2013-2-6,35.0,26.5,17.9,24.6,20.0,16.0,95,77,55,30.29,30.03,6,2,9,0.09
2013-2-7,39.3,30.4,23.8,30.7,25.4,19.8,95,82,69,30.23,29.83,7,4,12,0.12
2013-2-8,31.3,28.1,21.4,30.0,24.3,19.3,96,86,74,30.38,29.83,12,5,15,0.00
2013-2-9,33.5,23.5,12.4,24.0,18.6,10.6,95,82,64,30.46,30.23,8,3,11,0.00
2013-2-10,42.9,33.4,25.3,42.2,29.2,20.7,98,85,74,30.23,29.62,9,5,13,0.09
2013-2-11,46.1,35.2,28.8,43.5,28.4,21.9,97,76,67,29.97,29.57,19,11,25,0.01
2013-2-12,29.8,27.7,26.6,23.4,22.3,21.3,84,80,74,30.11,29.97,17,6,22,0.00
2013-2-13,43.3,31.4,19.6,30.6,25.0,17.9,94,78,58,29.97,29.75,6,2,11,0.00
2013-2-14,38.7,34.3,30.5,33.9,29.6,24.7,92,83,71,29.94,29.70,19,7,25,0.00
2013-2-15,31.8,25.5,18.4,26.1,19.9,14.6,91,79,59,30.18,29.94,9,4,12,0.00
2013-2-16,20.7,17.0,9.9,18.7,12.6,6.7,93,83,62,30.16,30.09,14,5,19,0.00
2013-2-17,27.1,16.6,3.7,15.8,10.4,0.4,93,77,57,30.28,30.15,4,1,5,0.00
2013-2-18,50.0,35.4,21.1,41.7,27.7,13.9,92,74,60,30.19,29.50,13,7,23,0.05
2013-2-19,43.5,21.6,13.9,41.4,18.0,10.2,94,86,76,30.07,29.44,20,11,26,0.00
2013-2-20,21.4,17.9,14.0,16.5,13.9,11.3,90,84,76,30.35,30.07,13,8,20,0.00
2013-2-21,25.1,21.6,18.5,20.1,16.7,14.0,86,81,77,30.42,30.16,15,6,18,0.00
2013-2-22,32.4,26.3,20.1,31.3,23.9,15.8,96,90,80,30.16,29.88,15,7,21,0.00
2013-2-23,28.7,26.1,23.7,23.3,20.6,18.0,88,80,66,29.98,29.92,7,4,15,0.00
2013-2-24,34.7,27.4,21.7,26.3,22.2,19.1,94,81,68,30.19,29.96,12,4,15,0.01
2013-2-25,40.1,28.9,15.9,28.3,22.9,14.2,96,80,58,30.25,30.07,6,2,8,0.00
2013-2-26,33.0,30.9,28.4,30.8,26.8,22.5,96,85,70,30.08,29.48,13,6,20,0.00
2013-2-27,34.3,32.1,31.3,32.8,31.1,30.5,98,96,93,29.61,29.47,5,1,6,0.34
2013-2-28,36.9,32.8,30.5,31.5,30.0,26.8,98,90,78,29.99,29.61,7,4,11,0.23
2013-3-1,30.9,27.5,23.4,27.2,21.9,17.6,90,79,71,30.17,29.99,11,5,19,0.00
2013-3-2,30.4,24.5,20.2,19.1,17.2,15.0,83,74,60,30.16,30.10,10,4,12,0.00
2013-3-3,30.2,22.9,13.8,19.2,15.6,11.7,92,74,55,30.14,30.07,10,4,14,0.00
2013-3-4,30.9,23.3,11.5,20.8,16.0,9.4,94,75,57,30.20,30.09,5,2,7,0.00
2013-3-5,30.4,28.0,24.9,26.8,22.5,19.8,95,80,69,30.12,29.81,15,8,26,0.00
2013-3-6,35.4,30.4,25.3,28.3,25.6,22.1,91,82,71,30.27,29.89,15,6,21,0.04
2013-3-7,37.2,32.3,23.5,28.9,25.4,20.2,90,77,54,30.44,30.26,8,3,11,0.00
2013-3-8,40.8,28.9,15.9,26.6,21.6,14.2,96,76,50,30.54,30.43,4,1,6,0.00
2013-3-9,43.3,34.6,26.3,33.7,28.3,22.1,87,78,62,30.43,29.99,10,4,13,0.00
2013-3-10,59.2,48.2,38.7,46.1,39.8,33.0,87,73,61,29.99,29.71,11,4,16,0.05
2013-3-11,53.8,44.4,33.2,47.6,41.2,30.2,98,89,61,29.73,29.51,12,5,16,0.12
2013-3-12,33.7,31.2,29.0,30.5,27.3,23.4,94,86,67,29.94,29.73,12,6,19,0.00
2013-3-13,28.7,25.3,19.6,25.9,19.8,13.5,94,80,64,30.31,29.94,15,8,18,0.00
2013-3-14,39.7,28.0,15.4,24.7,18.3,12.3,89,68,44,30.33,30.14,8,2,11,0.00
2013-3-15,44.8,35.6,28.5,37.2,31.5,24.5,95,85,69,30.14,29.82,6,3,11,0.04
2013-3-16,36.1,31.4,26.0,34.8,28.6,21.3,97,89,77,30.10,29.70,10,5,13,0.00
2013-3-17,34.1,28.2,25.7,22.4,20.2,17.2,82,72,57,30.26,30.10,12,6,18,0.00
2013-3-18,33.3,29.4,25.5,32.4,26.7,19.2,97,89,77,30.11,29.59,16,7,21,0.01
2013-3-19,31.3,24.3,18.1,22.3,16.5,13.6,88,73,52,30.03,29.73,21,12,28,0.00
2013-3-20,27.4,20.9,14.7,17.8,13.3,9.2,89,72,62,30.04,29.99,16,10,21,0.00
2013-3-21,27.4,20.6,12.2,21.1,16.1,10.1,92,83,68,30.05,29.97,15,6,23,0.00
2013-3-22,37.3,27.8,18.1,22.4,19.4,15.3,90,72,48,30.09,30.01,10,3,14,0.00
2013-3-23,35.2,27.8,20.9,23.9,21.1,18.0,90,76,60,30.16,30.04,8,3,11,0.00
2013-3-24,35.8,30.3,25.9,26.1,23.6,21.7,85,76,64,30.05,29.64,13,7,22,0.00
2013-3-25,35.2,31.9,27.3,29.4,25.8,22.1,90,78,68,30.00,29.61,15,9,20,0.00
2013-3-26,39.3,33.7,30.5,29.4,27.7,25.8,89,79,62,30.21,30.00,13,6,16,0.00
2013-3-27,42.5,35.2,26.4,31.3,25.0,18.9,94,69,43,30.30,30.20,13,6,19,0.00
2013-3-28,49.2,36.8,26.5,28.5,23.6,19.3,82,61,38,30.33,30.28,9,4,12,0.00
2013-3-29,50.2,36.6,21.9,29.9,21.1,18.5,90,57,30,30.33,30.24,8,2,13,0.00
2013-3-30,54.8,39.2,20.9,33.3,25.9,17.5,90,62,36,30.26,29.92,7,2,12,0.00
2013-3-31,57.5,46.1,37.5,41.9,35.6,26.5,96,69,40,29.92,29.66,16,7,20,0.02
2013-4-1,37.5,30.8,21.9,30.3,17.9,12.1,83,59,41,30.16,29.78,16,7,21,0.00
2013-4-2,39.0,30.0,20.5,22.1,15.1,8.5,89,57,30,30.31,30.16,16,5,18,0.00
2013-4-3,45.2,32.6,20.8,21.6,13.9,9.1,77,50,24,30.46,30.31,10,3,14,0.00
2013-4-4,55.8,39.1,22.3,22.3,19.0,15.3,81,48,23,30.37,29.97,7,2,11,0.00
2013-4-5,50.2,41.1,32.3,28.8,23.0,13.1,73,51,23,30.20,29.96,11,5,17,0.00
2013-4-6,60.3,46.2,31.3,38.0,28.8,23.2,74,53,35,30.18,29.71,15,8,21,0.00
2013-4-7,59.1,50.2,42.4,47.2,39.5,33.7,83,67,47,29.99,29.63,15,8,19,0.01
2013-4-8,67.5,48.1,38.2,56.6,41.5,32.4,94,79,58,29.99,29.67,21,7,25,0.08
2013-4-9,71.0,53.0,37.1,60.7,47.3,35.5,97,82,63,30.03,29.82,9,4,12,0.03
2013-4-10,49.8,43.0,39.3,46.4,41.4,38.0,97,94,87,29.95,29.83,11,6,15,0.22
2013-4-11,40.8,39.6,37.6,39.9,38.6,36.8,98,96,93,29.96,29.60,12,8,20,1.69
2013-4-12,42.7,38.3,36.1,38.2,35.5,31.3,98,90,78,29.83,29.57,13,5,17,0.25
2013-4-13,40.9,37.1,31.8,33.0,29.5,26.0,93,75,56,30.00,29.82,16,7,22,0.00
2013-4-14,56.6,43.0,29.8,45.3,35.7,26.4,91,76,61,30.07,29.83,13,6,18,0.01
2013-4-15,63.4,54.7,46.1,55.9,49.2,40.6,96,82,72,29.91,29.82,12,4,16,0.17
2013-4-16,53.6,46.5,41.5,47.2,38.9,31.7,97,77,49,30.23,29.90,8,4,13,0.30
2013-4-17,53.7,46.3,42.5,44.3,38.8,34.3,96,76,63,30.28,29.92,14,7,26,1.19
2013-4-18,71.2,57.4,45.7,64.7,55.3,44.1,97,93,80,29.93,29.49,17,7,20,0.79
2013-4-19,58.3,38.8,31.2,57.5,34.1,28.6,97,83,70,29.85,29.43,15,9,22,0.58
2013-4-20,38.8,32.7,26.6,30.0,22.7,15.4,96,68,39,30.47,29.84,13,6,18,0.02
2013-4-21,49.7,37.2,23.6,33.9,26.0,18.2,88,65,45,30.60,30.43,10,4,13,0.00
2013-4-22,62.8,48.3,32.1,37.2,32.2,28.1,86,58,29,30.43,30.13,8,4,12,0.00
2013-4-23,65.9,51.2,40.9,54.1,43.7,35.9,96,77,53,30.14,29.83,10,4,14,0.54
2013-4-24,42.9,37.7,33.5,39.7,31.5,22.7,96,80,46,30.16,29.81,15,6,19,0.19
2013-4-25,49.2,40.4,33.2,38.0,31.7,27.8,89,72,50,30.37,30.11,15,5,23,0.02
2013-4-26,61.9,46.7,30.5,40.4,34.4,28.2,94,65,39,30.44,30.31,11,3,14,0.00
2013-4-27,68.4,55.2,38.0,43.4,38.3,34.5,90,56,29,30.34,30.04,8,3,13,0.00
2013-4-28,57.8,53.0,47.8,53.3,48.6,41.7,97,86,56,30.04,29.81,4,2,6,0.26
2013-4-29,71.4,58.3,45.5,57.7,51.8,44.8,99,81,52,29.94,29.85,8,3,11,0.00
2013-4-30,77.7,64.9,53.5,62.7,56.1,50.1,89,74,55,29.99,29.86,13,6,19,0.00
2013-5-1,82.3,71.0,56.5,58.9,55.5,51.6,84,60,39,30.15,29.99,9,3,16,0.00
2013-5-2,79.8,70.0,59.8,59.7,55.7,52.0,82,62,42,30.16,30.03,10,4,13,0.00
2013-5-3,76.8,67.1,54.5,59.3,52.8,44.3,87,62,41,30.06,29.93,13,6,18,0.00
2013-5-4,70.7,63.5,57.1,49.1,43.9,38.9,63,49,32,30.02,29.95,12,7,18,0.00
2013-5-5,73.1,62.2,52.3,49.0,42.6,34.8,70,50,34,30.03,29.95,11,5,16,0.00
2013-5-6,76.1,64.3,53.2,51.1,42.1,35.1,64,46,26,30.01,29.91,7,3,12,0.00
2013-5-7,75.5,64.3,48.6,54.4,49.0,43.4,85,59,41,30.02,29.95,9,2,14,0.00
2013-5-8,77.6,65.1,50.5,54.0,50.5,47.9,93,62,39,30.01,29.92,8,2,12,0.00
2013-5-9,80.5,65.0,47.8,57.6,50.6,42.6,96,64,27,29.96,29.87,7,2,8,0.03
2013-5-10,64.4,56.4,44.9,59.4,53.3,42.4,97,90,72,29.90,29.73,10,5,17,0.26
2013-5-11,52.5,45.6,37.1,48.4,41.1,32.9,95,85,61,29.98,29.80,14,5,23,0.04
2013-5-12,46.6,39.6,30.8,33.9,30.1,27.6,91,70,49,30.13,29.97,13,6,19,0.00
2013-5-13,55.8,44.1,28.0,35.2,26.7,20.7,95,56,26,30.20,30.09,9,2,11,0.00
2013-5-14,81.6,63.5,46.5,56.9,43.9,28.6,63,49,37,30.09,29.68,11,4,20,0.00
2013-5-15,77.8,73.2,58.4,60.6,52.5,46.3,71,49,34,29.79,29.59,12,6,16,0.00
2013-5-16,82.7,67.4,49.1,52.7,45.7,40.3,90,51,23,29.96,29.78,8,3,11,0.00
2013-5-17,78.4,66.8,53.7,50.6,45.6,40.2,68,48,35,30.07,29.95,9,5,14,0.00
2013-5-18,82.3,67.4,55.3,59.6,50.7,41.6,67,56,44,30.08,29.96,6,3,10,0.00
2013-5-19,86.2,72.7,57.6,63.3,56.8,47.9,75,58,42,30.00,29.84,8,3,12,0.00
2013-5-20,87.4,76.6,67.2,69.6,65.5,61.0,89,70,47,29.89,29.77,11,4,16,0.08
2013-5-21,81.4,72.0,62.2,66.4,63.9,60.4,97,77,56,29.83,29.71,14,4,14,0.73
2013-5-22,74.9,66.9,61.2,65.4,62.7,59.2,97,87,60,29.76,29.66,15,3,23,0.28
2013-5-23,61.6,53.8,47.2,60.3,51.1,41.7,96,90,78,30.22,29.74,12,6,18,0.08
2013-5-24,57.9,48.0,36.4,43.0,38.9,34.2,92,72,51,30.42,30.22,7,4,15,0.00
2013-5-25,67.0,52.7,36.9,46.6,39.9,34.0,97,66,37,30.43,30.31,6,2,11,0.00
2013-5-26,68.4,58.6,45.0,44.4,40.1,35.1,83,53,33,30.37,30.22,7,3,11,0.00
2013-5-27,61.0,54.4,50.8,52.7,46.6,34.8,96,79,38,30.23,29.97,11,6,15,0.42
2013-5-28,78.2,67.5,54.1,70.4,63.5,52.7,99,88,71,29.98,29.82,12,4,22,0.44
2013-5-29,81.0,71.7,61.7,71.5,64.8,60.5,96,80,62,30.01,29.82,15,4,18,0.17
2013-5-30,84.7,75.4,66.2,70.3,66.2,62.0,87,74,57,30.03,29.92,11,4,17,0.00
2013-5-31,75.7,71.1,65.8,68.2,65.6,62.4,91,83,75,29.97,29.79,11,5,15,0.11
2013-6-1,73.8,67.8,63.5,65.2,63.2,61.8,96,86,71,29.87,29.71,8,4,12,0.92
2013-6-2,65.6,57.4,46.6,63.8,52.3,41.6,95,83,68,30.05,29.71,11,6,13,0.01
2013-6-3,66.8,54.0,40.7,47.8,42.7,39.2,96,68,42,30.15,30.04,6,3,10,0.00
2013-6-4,73.7,59.8,43.2,51.3,46.2,41.4,95,65,37,30.22,30.13,5,2,8,0.00
2013-6-5,75.0,64.9,55.0,52.3,47.1,42.8,77,54,37,30.17,29.96,8,4,11,0.00
2013-6-6,70.8,62.5,56.5,56.6,50.4,44.1,78,65,47,30.00,29.86,10,5,12,0.00
2013-6-7,69.1,59.7,52.3,53.9,51.1,48.5,89,74,55,29.95,29.90,9,4,16,0.00
2013-6-8,75.7,63.4,49.1,56.3,52.4,47.6,97,70,45,30.05,29.94,4,2,7,0.00
2013-6-9,79.0,70.4,61.5,64.3,58.9,52.6,84,68,53,30.07,29.89,9,4,11,0.00
2013-6-10,71.6,66.9,63.4,66.9,64.5,61.6,97,92,74,29.90,29.76,7,4,11,0.88
2013-6-11,82.1,69.7,59.0,68.8,62.9,58.4,98,81,58,29.95,29.84,7,3,9,0.00
2013-6-12,86.5,73.2,64.6,74.6,68.0,62.6,96,85,66,29.91,29.62,8,2,10,0.45
2013-6-13,75.3,66.1,58.0,62.8,58.0,53.5,97,77,48,29.99,29.53,12,6,22,0.14
2013-6-14,79.2,65.1,54.7,60.4,55.9,50.9,95,75,39,30.13,29.99,7,3,11,0.00
2013-6-15,75.3,64.2,54.6,65.1,60.1,53.6,98,87,62,30.11,29.93,6,2,7,0.22
2013-6-16,78.8,69.2,62.8,67.0,63.8,58.4,96,84,61,29.93,29.86,10,4,13,0.23
2013-6-17,85.4,73.7,60.5,67.3,59.5,52.2,98,66,33,29.95,29.87,12,2,12,0.29
2013-6-18,72.9,65.3,59.6,61.6,57.6,48.2,96,78,58,30.08,29.89,8,4,12,0.01
2013-6-19,76.9,63.7,51.0,53.2,47.7,43.8,80,58,34,30.19,30.08,4,2,8,0.00
2013-6-20,84.6,70.0,53.9,63.6,56.1,50.6,90,64,36,30.22,30.14,4,1,11,0.00
2013-6-21,85.2,74.5,64.4,66.3,62.8,60.0,91,69,44,30.19,30.00,8,2,12,0.00
2013-6-22,85.7,75.2,66.4,74.4,68.6,63.1,90,80,65,30.11,29.98,5,2,9,0.00
2013-6-23,87.5,74.0,65.0,70.4,61.3,-99.9,94,71,51,30.09,29.98,7,-31,11,0.00
2013-6-24,85.6,75.7,66.9,71.1,67.7,65.1,96,78,53,30.08,29.94,7,3,12,0.00
2013-6-25,86.4,77.4,68.4,75.7,71.2,66.7,97,82,63,29.93,29.81,7,4,13,1.34
2013-6-26,82.3,70.6,65.6,72.3,67.7,64.4,98,91,67,29.93,29.75,9,3,12,0.99
2013-6-27,82.5,73.2,66.5,73.3,69.2,66.2,99,88,63,29.78,29.67,10,3,13,0.00
2013-6-28,76.7,70.2,61.6,67.8,63.6,60.4,99,81,58,29.69,29.58,13,4,15,0.00
2013-6-29,76.0,65.6,58.4,65.5,61.7,57.8,99,88,62,29.75,29.57,7,2,10,0.39
2013-6-30,77.9,67.5,61.8,63.4,60.1,55.7,98,78,54,29.97,29.75,10,4,15,0.03
2013-7-1,72.1,65.3,58.0,60.6,51.9,43.2,79,62,47,30.07,29.96,10,6,15,0.00
2013-7-2,68.7,62.0,55.5,64.9,58.3,51.9,96,88,69,30.08,30.03,8,4,11,0.26
2013-7-3,79.2,70.3,64.5,67.1,64.0,61.8,96,82,58,30.10,30.03,9,4,13,0.00
2013-7-4,78.7,68.3,60.6,66.1,62.3,59.4,99,83,54,30.16,30.09,4,1,7,0.00
2013-7-5,82.1,72.3,61.0,70.5,65.2,60.4,99,80,58,30.14,30.05,4,1,6,0.00
2013-7-6,79.4,72.4,64.8,70.9,67.5,63.6,98,85,68,30.11,30.01,5,1,9,0.00
2013-7-7,81.9,73.0,66.8,72.6,68.8,63.8,98,87,66,30.07,29.99,6,2,10,0.21
2013-7-8,80.3,73.5,69.5,73.3,70.0,67.7,98,89,76,30.06,29.98,9,2,12,0.05
2013-7-9,84.1,74.2,67.7,79.2,72.3,67.2,99,94,78,30.02,29.90,14,2,16,0.62
2013-7-10,82.1,75.3,62.6,77.4,68.9,56.2,98,81,55,30.00,29.83,11,4,15,0.00
2013-7-11,77.5,67.8,59.1,61.0,57.1,54.4,89,70,48,30.10,29.99,7,3,11,0.00
2013-7-12,79.2,67.4,54.7,64.4,58.1,53.7,97,75,45,30.17,30.08,6,2,10,0.00
2013-7-13,82.6,71.1,57.6,67.8,63.1,56.3,98,78,55,30.21,30.15,7,3,11,0.00
2013-7-14,87.3,76.8,65.1,72.7,68.5,63.2,95,77,58,30.25,30.20,7,3,10,0.00
2013-7-15,91.0,79.2,68.2,77.9,72.7,66.8,98,82,59,30.29,30.23,5,1,8,0.00
2013-7-16,90.4,80.8,70.4,76.1,72.9,69.6,99,79,54,30.34,30.26,6,2,8,0.00
2013-7-17,89.2,80.1,70.3,77.6,73.3,69.1,97,81,62,30.33,30.19,7,2,12,0.00
2013-7-18,90.7,81.4,70.9,78.2,73.9,69.4,98,79,59,30.20,29.98,7,2,8,0.00
2013-7-19,92.1,83.5,74.2,76.4,73.5,70.5,94,74,52,29.99,29.76,9,4,15,0.00
2013-7-20,85.1,77.8,69.9,73.6,67.7,62.1,95,73,48,29.93,29.76,9,3,15,0.09
2013-7-21,86.3,74.0,63.4,70.8,65.5,60.0,93,76,53,30.00,29.89,7,2,9,0.00
2013-7-22,82.7,71.6,64.1,70.6,66.5,62.6,97,85,60,29.96,29.77,10,3,13,0.90
2013-7-23,78.6,70.3,58.1,70.3,63.9,52.8,95,81,61,29.93,29.71,10,4,18,0.03
2013-7-24,72.3,61.6,51.0,56.8,51.7,47.7,89,71,50,30.07,29.93,7,3,12,0.00
2013-7-25,76.7,64.8,52.4,60.8,55.8,51.0,97,75,47,30.14,30.07,4,1,8,0.00
2013-7-26,75.9,66.0,55.1,63.2,59.4,53.8,97,81,58,30.11,29.92,6,2,8,0.05
2013-7-27,71.2,63.5,53.7,64.3,58.8,49.2,98,85,68,29.92,29.82,12,4,18,0.00
2013-7-28,63.1,56.8,52.0,54.2,51.2,47.9,92,82,66,30.03,29.87,9,3,13,0.01
2013-7-29,69.9,61.0,53.1,59.5,54.8,50.8,97,81,63,30.22,30.03,8,2,11,0.00
2013-7-30,78.4,64.2,48.4,64.8,57.4,47.6,99,81,54,30.26,30.13,4,1,6,0.00
2013-7-31,68.1,65.7,63.8,66.9,64.2,61.8,98,95,87,30.13,29.95,5,2,6,0.44
2013-8-1,75.1,66.2,60.0,65.5,59.8,53.7,99,83,49,29.99,29.95,10,3,11,0.00
2013-8-2,76.8,70.7,63.9,69.0,66.0,62.8,97,86,76,29.94,29.87,6,2,6,0.29
2013-8-3,76.3,68.0,58.5,66.5,59.3,51.3,99,77,44,30.10,29.95,8,2,12,0.01
2013-8-4,73.7,63.4,53.9,57.8,54.1,51.0,94,73,47,30.22,30.10,6,3,10,0.00
2013-8-5,73.0,61.7,47.7,64.1,55.8,46.6,98,82,59,30.16,29.97,5,1,8,0.00
2013-8-6,78.9,68.8,61.6,70.6,65.2,60.2,97,89,74,29.98,29.90,5,2,9,0.57
2013-8-7,80.4,70.9,63.6,73.6,67.9,63.0,100,91,75,29.93,29.84,12,2,12,0.02
2013-8-8,76.4,69.1,61.9,67.6,62.4,59.2,94,80,62,30.03,29.93,7,3,11,0.00
2013-8-9,78.9,69.5,58.2,66.9,60.8,56.5,96,75,52,30.04,29.98,6,2,7,0.00
2013-8-10,78.6,69.9,62.8,65.6,61.7,58.2,96,77,53,30.14,30.04,5,2,10,0.00
2013-8-11,77.3,67.0,55.1,63.1,59.0,54.0,98,77,53,30.15,30.07,6,1,8,0.00
2013-8-12,80.5,69.4,62.1,70.2,65.0,60.0,98,86,66,30.09,29.86,5,1,9,0.86
2013-8-13,66.3,60.7,53.8,64.8,54.1,48.8,99,80,57,30.14,29.91,9,4,13,0.01
2013-8-14,70.4,57.3,47.2,54.7,48.8,44.7,94,75,47,30.24,30.14,8,2,10,0.00
2013-8-15,72.9,47.2,44.2,59.0,15.8,-99.9,98,56,56,30.22,30.13,5,-248,8,0.00
2013-8-16,78.5,63.1,48.5,59.2,53.4,48.0,99,75,41,30.22,30.16,5,1,8,0.01
2013-8-17,78.2,64.8,52.0,62.3,56.2,51.0,99,76,50,30.28,30.20,6,2,9,0.00
2013-8-18,81.9,67.4,53.1,65.9,59.1,52.1,98,77,50,30.25,30.13,4,1,6,0.00
2013-8-19,82.0,68.6,55.6,66.2,60.3,54.6,98,77,49,30.15,30.07,6,2,10,0.00
2013-8-20,84.7,69.7,57.9,69.2,63.0,57.1,99,81,49,30.17,30.09,5,1,7,0.00
2013-8-21,86.3,74.1,61.8,70.4,65.9,60.3,98,78,52,30.14,30.01,6,2,8,0.00
2013-8-22,77.7,70.2,64.7,71.7,66.8,63.8,98,89,79,30.11,30.01,14,4,19,0.36
2013-8-23,78.7,69.3,56.6,65.8,58.7,51.5,98,73,41,30.20,30.10,7,3,11,0.00
2013-8-24,83.1,67.2,52.3,62.7,56.6,51.5,98,73,38,30.33,30.20,6,2,8,0.00
2013-8-25,86.3,71.4,55.0,67.7,61.4,53.6,98,73,48,30.32,30.18,7,2,10,0.00
2013-8-26,86.7,75.4,63.5,73.9,67.2,60.2,90,76,61,30.22,30.02,7,3,11,0.00
2013-8-27,90.8,79.9,71.1,76.3,71.6,68.7,94,77,57,30.03,29.84,6,3,9,0.00
2013-8-28,83.9,77.8,71.0,75.1,70.9,67.5,93,80,70,30.03,29.83,8,4,13,0.00
2013-8-29,88.6,75.1,63.6,70.2,67.3,63.0,99,79,48,30.09,30.00,5,1,7,0.01
2013-8-30,90.3,77.4,64.3,73.7,69.3,62.8,98,78,53,30.01,29.76,7,3,13,0.01
2013-8-31,80.1,74.0,68.0,72.5,68.6,66.8,97,84,67,29.87,29.78,4,2,6,0.00
2013-9-1,86.4,75.0,67.5,71.5,68.7,66.3,98,82,60,29.83,29.73,7,2,9,0.00
2013-9-2,75.2,67.9,57.2,68.3,61.4,50.4,98,81,58,29.99,29.76,8,4,12,0.10
2013-9-3,73.8,63.0,53.6,57.9,53.9,50.0,97,73,55,30.08,29.97,8,3,11,0.00
2013-9-4,79.3,63.9,49.5,62.2,55.7,49.0,99,78,45,30.14,30.07,10,3,12,0.01
2013-9-5,74.4,64.5,56.6,59.6,48.2,32.6,96,61,22,30.28,30.14,7,3,11,0.00
2013-9-6,81.6,64.4,45.9,56.6,50.9,44.2,97,65,36,30.30,30.09,5,1,8,0.00
2013-9-7,86.7,70.9,56.6,67.2,60.8,53.5,90,72,47,30.09,29.92,7,2,9,0.00
2013-9-8,78.3,69.8,63.0,65.9,63.4,60.7,96,81,61,30.07,29.96,9,4,13,0.00
2013-9-9,89.9,73.2,58.9,73.1,64.6,53.4,91,75,57,30.06,29.88,7,3,11,0.00
2013-9-10,95.0,83.2,72.7,72.7,67.9,62.7,91,64,35,30.03,29.91,10,4,15,0.00
2013-9-11,93.5,71.7,69.5,72.7,55.0,-99.9,97,71,43,30.05,29.93,9,-78,14,0.19
2013-9-12,80.2,70.0,58.0,68.2,59.0,49.3,97,72,37,30.04,29.89,10,3,17,0.00
2013-9-13,61.4,53.7,42.4,50.1,44.2,40.0,93,72,49,30.18,30.04,8,4,12,0.00
2013-9-14,70.5,52.5,35.7,45.6,40.4,34.9,98,69,32,30.26,30.12,4,1,8,0.00
2013-9-15,61.7,53.2,44.2,54.1,48.2,40.9,96,84,66,30.18,30.07,6,1,9,0.10
2013-9-16,64.4,56.4,49.4,53.6,50.1,45.0,97,81,55,30.38,30.18,6,3,9,0.00
2013-9-17,69.7,55.4,42.8,50.5,46.2,41.2,94,74,42,30.42,30.23,6,2,10,0.00
2013-9-18,80.8,65.0,50.0,58.5,52.8,47.2,93,68,36,30.23,30.01,6,2,10,0.00
2013-9-19,71.3,67.2,63.7,67.5,64.4,56.9,97,91,69,30.05,29.89,7,2,11,0.69
2013-9-20,72.6,69.8,63.1,70.0,67.0,59.8,95,91,84,29.90,29.77,6,3,10,0.00
2013-9-21,64.8,59.1,53.8,59.4,51.8,46.4,97,78,53,29.93,29.75,11,4,13,0.00
2013-9-22,61.3,53.5,45.0,49.1,44.9,42.0,93,74,54,30.10,29.93,8,3,12,0.00
2013-9-23,65.2,52.2,41.5,49.5,44.8,39.6,94,78,54,30.20,30.11,7,3,12,0.00
2013-9-24,69.3,55.2,41.9,49.2,45.0,39.8,95,71,41,30.17,30.00,9,3,12,0.00
2013-9-25,71.8,57.5,43.7,55.4,48.9,42.1,97,75,48,30.03,29.97,6,2,8,0.00
2013-9-26,78.7,60.6,43.6,54.3,47.3,42.3,98,67,30,30.14,30.01,6,2,10,0.00
2013-9-27,78.5,61.7,43.5,57.1,50.1,41.6,96,69,42,30.24,30.14,8,2,10,0.00
2013-9-28,80.5,65.0,51.6,58.4,53.4,49.7,96,70,38,30.19,30.00,8,3,12,0.00
2013-9-29,66.8,61.6,50.8,60.2,54.5,48.6,96,78,60,30.03,29.96,7,2,10,0.11
2013-9-30,72.9,56.4,44.0,56.8,50.0,43.4,99,82,47,30.06,29.95,5,1,14,0.01
2013-10-1,73.1,62.5,52.1,63.4,59.4,50.5,99,90,71,30.04,29.96,7,2,11,0.01
2013-10-2,81.0,69.0,60.6,63.4,55.2,46.8,98,67,35,30.12,29.99,6,2,8,0.00
2013-10-3,75.0,65.0,55.5,70.2,61.2,52.0,97,88,67,30.06,29.92,8,2,12,0.27
2013-10-4,79.1,70.1,63.0,71.1,66.3,61.4,97,88,75,30.03,29.95,4,1,8,0.00
2013-10-5,77.4,68.6,63.5,70.5,66.6,63.2,99,93,78,30.01,29.84,6,2,10,0.17
2013-10-6,66.9,59.4,49.3,66.3,57.0,42.4,98,92,73,29.85,29.72,8,3,12,0.30
2013-10-7,59.6,48.1,40.6,50.9,43.6,39.1,97,85,60,30.17,29.77,12,4,18,0.01
2013-10-8,71.6,55.2,40.9,52.7,46.8,40.1,98,77,45,30.29,30.16,6,2,9,0.00
2013-10-9,71.4,55.8,40.3,51.0,44.7,39.4,98,69,38,30.33,30.21,6,2,10,0.00
2013-10-10,74.1,56.1,40.3,52.9,45.9,39.5,98,72,39,30.24,30.13,4,1,8,0.00
2013-10-11,74.7,57.3,39.5,53.2,46.2,38.7,98,71,36,30.17,30.06,4,1,7,0.00
2013-10-12,78.4,62.8,46.3,61.9,53.1,45.1,98,74,39,30.14,30.03,7,2,12,0.08
2013-10-13,63.4,53.8,43.7,60.1,46.0,40.5,98,78,45,30.41,30.14,8,2,11,0.01
2013-10-14,63.3,51.2,41.4,45.7,42.9,39.8,95,75,50,30.45,30.26,9,3,11,0.01
2013-10-15,62.0,54.3,45.0,60.5,51.1,41.7,97,89,83,30.27,29.86,6,3,9,0.17
2013-10-16,60.9,50.4,44.3,59.5,47.0,42.1,95,88,82,29.98,29.86,9,3,15,0.00
2013-10-17,50.6,47.4,42.9,47.0,45.5,41.6,97,93,84,29.97,29.83,9,3,14,0.17
2013-10-18,59.2,45.0,35.1,46.8,40.7,34.6,99,86,56,30.00,29.92,11,3,14,0.01
2013-10-19,51.8,43.6,40.2,44.4,37.9,30.7,96,82,45,29.98,29.83,12,3,18,0.12
2013-10-20,59.2,48.9,38.3,44.7,40.2,35.8,91,73,51,29.97,29.85,9,4,18,0.00
2013-10-21,55.2,48.5,39.8,47.8,41.2,28.8,91,76,63,29.96,29.86,14,5,20,0.01
2013-10-22,47.4,37.7,28.3,33.3,29.8,25.3,95,74,53,30.01,29.95,10,3,12,0.00
2013-10-23,42.2,35.3,29.1,34.8,31.2,26.4,98,86,60,30.05,29.91,13,3,17,0.00
2013-10-24,39.8,34.3,32.4,36.3,32.7,31.0,97,94,82,30.31,30.04,9,3,12,0.19
2013-10-25,46.0,37.9,32.4,37.1,31.2,27.0,98,79,49,30.43,30.17,12,3,15,0.07
2013-10-26,49.4,43.1,38.3,40.4,32.7,27.6,83,67,59,30.17,29.88,12,6,18,0.00
2013-10-27,53.5,42.6,32.1,36.6,32.5,29.9,97,70,43,30.13,30.04,8,2,14,0.00
2013-10-28,54.9,41.5,29.6,40.2,34.0,27.7,95,76,53,30.42,30.10,6,2,8,0.00
2013-10-29,54.1,43.0,32.5,41.8,36.3,29.9,91,78,59,30.46,30.26,5,2,8,0.00
2013-10-30,60.7,49.9,36.0,56.3,46.1,34.6,98,87,71,30.26,29.93,6,2,9,0.65
2013-10-31,62.5,59.3,52.4,61.7,58.2,50.0,99,96,93,29.93,29.21,15,6,21,1.51
2013-11-1,51.7,45.7,43.3,50.0,42.3,39.3,96,88,77,29.74,29.27,13,5,17,0.03
2013-11-2,47.5,43.7,40.8,43.1,41.0,37.7,97,90,76,30.14,29.73,9,4,14,0.07
2013-11-3,49.4,41.0,34.8,39.6,36.1,32.4,96,83,63,30.43,30.14,8,3,11,0.00
2013-11-4,50.3,43.2,36.5,42.0,36.2,32.6,89,77,59,30.44,30.28,10,6,16,0.00
2013-11-5,53.6,50.8,48.0,48.8,45.0,41.8,86,81,73,30.38,30.14,7,3,11,0.00
2013-11-6,54.7,50.0,39.7,52.4,46.5,37.4,96,88,68,30.14,29.84,16,7,16,0.29
2013-11-7,44.6,37.6,28.8,37.9,31.9,26.6,94,81,50,30.25,30.09,14,5,22,0.02
2013-11-8,45.6,37.5,30.1,33.7,31.4,28.5,97,80,56,30.38,30.17,6,2,9,0.04
2013-11-9,56.7,48.3,40.3,42.4,37.0,31.1,76,65,55,30.17,29.90,18,10,23,0.00
2013-11-10,45.9,39.8,33.5,36.3,29.2,-99.9,88,69,55,30.35,30.02,22,-6,26,0.00
2013-11-11,44.4,36.1,25.8,38.3,30.7,20.0,95,81,66,30.44,30.13,10,5,15,0.15
2013-11-12,32.7,26.4,21.3,25.3,20.5,17.6,89,79,61,30.67,30.44,9,4,14,0.00
2013-11-13,37.2,27.5,18.5,21.2,18.0,11.7,90,69,40,30.64,30.29,11,5,19,0.00
2013-11-14,49.6,37.9,28.9,27.3,23.0,19.0,70,56,38,30.29,30.05,11,7,16,0.00
2013-11-15,48.7,42.3,35.5,33.8,29.4,25.1,71,60,52,30.10,30.04,7,3,10,0.00
2013-11-16,56.4,47.3,35.9,55.0,43.7,30.9,95,87,71,30.08,29.74,13,6,17,0.08
2013-11-17,62.4,58.1,44.9,60.1,56.1,38.1,98,93,77,29.75,29.25,19,9,22,0.64
2013-11-18,44.9,38.0,33.9,38.1,31.2,26.1,85,76,70,30.24,29.66,20,10,23,0.00
2013-11-19,34.9,33.6,33.2,27.2,26.2,25.2,78,74,69,30.40,30.24,8,4,11,0.00
2013-11-20,42.1,35.9,26.6,34.0,29.0,23.1,87,76,62,30.44,30.23,11,5,14,0.00
2013-11-21,47.2,43.3,38.6,43.8,40.2,34.0,98,89,79,30.29,30.22,7,3,9,0.41
2013-11-22,44.6,37.8,24.6,44.1,34.7,22.6,98,89,73,30.46,30.20,9,4,17,0.02
2013-11-23,28.5,22.7,14.5,24.8,18.7,11.0,94,85,73,30.67,30.39,12,5,18,0.00
2013-11-24,23.8,17.8,14.5,18.2,12.2,7.0,90,79,65,30.74,30.51,9,3,11,0.00
2013-11-25,28.8,23.6,14.7,25.0,16.6,7.6,92,75,62,30.51,30.18,12,6,16,0.00
2013-11-26,31.1,28.3,24.2,27.9,24.3,16.5,90,85,70,30.19,30.03,8,4,12,0.00
2013-11-27,29.4,24.0,20.1,21.3,17.4,14.9,84,76,57,30.30,30.07,9,4,15,0.00
2013-11-28,26.9,24.2,21.4,21.0,17.2,13.8,89,75,63,30.50,30.30,8,2,10,0.00
2013-11-29,35.9,28.9,24.4,23.6,21.8,20.9,88,75,56,30.71,30.51,6,2,8,0.00
2013-11-30,46.9,35.3,27.0,32.2,26.9,21.5,85,72,55,30.57,30.15,9,4,12,0.00
2013-12-1,42.7,35.7,24.6,35.3,29.2,22.3,94,78,65,30.15,30.06,6,2,8,0.00
2013-12-2,39.1,30.4,23.8,32.2,27.4,22.1,97,89,70,30.06,29.92,6,2,10,0.00
2013-12-3,43.8,37.3,31.1,42.8,35.9,29.1,97,95,87,29.92,29.82,7,4,9,0.16
2013-12-4,58.9,48.4,42.2,56.0,47.3,41.4,99,96,89,29.88,29.63,8,4,11,0.00
2013-12-5,58.4,35.6,27.0,55.6,30.0,20.5,92,80,71,30.25,29.64,16,8,19,0.00
2013-12-6,27.0,24.4,21.4,21.3,18.1,13.3,79,76,70,30.50,30.23,7,4,10,0.00
2013-12-7,21.4,18.5,10.4,17.3,12.5,7.3,88,77,66,30.70,30.50,9,4,12,0.00
2013-12-8,24.2,18.8,10.6,22.8,15.1,7.9,95,85,74,30.65,30.04,11,5,15,0.00
2013-12-9,25.7,21.6,14.8,23.7,17.5,8.4,95,84,72,30.24,29.99,11,6,15,0.00
2013-12-10,20.9,13.1,1.1,12.8,6.8,-3.1,86,76,64,30.34,30.09,12,6,16,0.00
2013-12-11,23.4,15.8,11.2,19.6,11.2,5.8,91,82,66,30.56,30.35,10,4,13,0.00
2013-12-12,16.2,9.6,-1.1,10.4,2.9,-6.6,85,74,55,30.57,30.32,9,4,12,0.00
2013-12-13,27.7,20.5,11.4,22.0,15.2,7.5,85,80,70,30.33,30.24,6,2,7,0.00
2013-12-14,25.8,20.9,17.7,21.9,18.8,15.8,94,91,82,30.26,29.94,10,5,16,0.00
2013-12-15,23.7,17.0,10.7,21.4,14.4,7.6,93,89,85,30.15,29.94,11,4,14,0.00
2013-12-16,19.4,12.2,1.9,13.6,8.7,-0.6,92,86,72,30.26,30.10,4,1,7,0.00
2013-12-17,26.2,21.1,13.9,24.0,18.9,12.0,94,91,85,30.12,30.01,9,4,12,0.00
2013-12-18,27.8,23.8,20.1,21.6,17.5,14.1,86,77,66,30.25,29.95,8,4,11,0.00
2013-12-19,42.0,36.6,28.0,36.0,32.2,19.1,97,84,69,30.03,29.91,7,2,10,0.11
2013-12-20,41.3,36.9,32.4,41.0,36.4,31.9,99,98,97,29.91,29.76,6,1,8,0.47
2013-12-21,33.5,32.5,31.2,33.2,32.2,30.2,99,98,96,29.89,29.64,9,3,16,0.80
2013-12-22,34.4,32.1,30.1,33.0,30.9,28.4,98,95,92,30.08,29.55,8,4,11,0.18
2013-12-23,30.0,21.2,9.5,28.5,11.2,-99.9,94,80,76,30.44,30.07,11,-57,15,0.00
2013-12-24,19.5,9.9,2.7,13.1,5.9,-0.6,90,84,74,30.61,30.45,7,3,12,0.00
2013-12-25,24.1,20.4,13.0,22.9,17.0,10.4,95,87,81,30.55,30.17,10,5,13,0.00
2013-12-26,28.8,24.2,21.3,25.1,20.4,15.6,95,85,73,30.35,30.13,9,4,14,0.00
2013-12-27,39.3,34.0,28.3,32.1,29.0,25.2,91,82,71,30.38,30.17,9,4,13,0.01
2013-12-28,47.6,39.6,33.0,36.6,32.6,29.6,87,76,63,30.18,29.93,8,5,14,0.00
2013-12-29,38.7,31.8,20.4,32.6,26.8,15.8,93,82,73,30.12,29.80,11,5,17,0.00
2013-12-30,20.4,16.9,12.6,16.5,11.9,7.8,90,81,69,30.34,30.12,7,3,7,0.00
2013-12-31,15.0,12.6,11.3,10.5,8.6,5.1,90,84,68,30.42,30.20,9,4,13,0.00
2014-1-1,14.0,12.5,10.3,11.4,9.9,7.7,91,89,87,30.42,30.26,7,4,12,0.00
2014-1-2,12.0,9.7,0.8,9.5,5.2,-4.5,90,82,68,30.43,30.17,13,8,20,0.00